[[{"header":{"parameterUnit":"m.s-1","parameterCategory":1,"la1":30.2991,"la2":30.254,"lo1":-89.0895,"lo2":-89.0444,"dy":0.0017,"dx":0.0017,"nx":28,"ny":28,"refTime":"2023-10-01T21:00:00:Z","depth":0,"parameterNumber":2,"parameterNumberName":"U-component_of_WINDS"},"data":[0,0,0,0,0,0,0,0,0,0,0,0,0,0,0,0,0,0,0,0,0,0,0,0,0,0,0,0,0,0,0,0,0,0,0,0,0,0,0,0,0,0,0,0,0,0,0,0,0,0,0,0,0,0,0,0,0,0,-3.0787,-3.0787,0,-3.0778,-3.0778,-3.0778,-3.0644,-3.064,-3.0637,-3.0634,-3.0626,-3.0629,-3.0632,0,0,0,0,0,0,0,0,0,0,0,0,0,-3.0691,-3.0693,-3.0788,-3.0787,-3.0787,-3.0778,-3.0778,-3.0778,-3.0644,-3.064,-3.0636,-3.0632,-3.0625,-3.0629,-3.0632,0,0,0,0,0,0,0,0,0,0,0,0,0,-3.0713,-3.0694,-3.0788,-3.0719,-3.0713,-3.0778,-3.0778,-3.0778,-3.0645,-3.064,-3.0635,-3.063,-3.0624,-3.0628,-3.0633,-3.0763,0,0,-3.0646,-3.0648,0,0,0,0,0,0,0,0,-3.0712,-3.0716,-3.073,-3.0724,-3.0717,-3.0707,-3.0741,-3.0773,-3.0647,-3.0671,-3.0634,-3.0628,-3.0657,-3.0659,-3.0668,-3.0762,-3.0762,-3.0647,-3.0649,-3.0651,-3.0653,0,0,0,0,0,0,0,-3.071,-3.0716,-3.0784,-3.073,-3.0723,-3.069,-3.0687,-3.0747,-3.0693,-3.0669,-3.0659,-3.0659,-3.0653,-3.0664,-3.0667,-3.0762,-3.0647,-3.0651,-3.0653,-3.0655,-3.0964,-3.097,0,0,0,0,0,0,-3.0718,-3.0716,-3.0784,-3.0784,-3.0702,-3.0696,-3.0693,-3.0715,-3.0692,-3.0683,-3.0664,-3.0653,-3.0659,-3.0662,-3.0666,-3.0819,-3.0651,-3.0655,-3.0658,-3.0959,-3.0966,-3.0972,0,0,0,0,0,0,-3.0716,-3.0725,-3.0784,-3.0747,-3.0752,-3.0703,-3.0729,-3.0718,-3.0729,-3.0688,-3.0678,-3.0685,-3.0655,-3.066,-3.074,-3.0817,-3.0657,-3.0662,-3.0952,-3.0961,-3.0969,-3.1125,0,0,0,0,0,0,-3.0714,-3.0726,-3.0774,-3.0749,-3.0755,-3.0859,-3.0734,-3.0722,-3.0737,-3.0723,-3.0706,-3.0698,-3.0651,-3.0734,-3.0745,-3.082,-3.0665,-3.0945,-3.0956,-3.0966,-3.1113,-3.1137,-3.1158,0,0,0,0,0,-3.0711,-3.0818,-3.0777,-3.0786,-3.0814,-3.0863,-3.0866,-3.081,-3.0744,-3.0793,-3.0767,-3.0699,-3.0806,-3.0744,-3.0754,-3.0832,-3.094,-3.0953,-3.0965,-3.1102,-3.1132,-3.1158,0,0,0,0,0,0,-3.0854,-3.0814,-3.0768,-3.087,-3.0871,-3.084,-3.09,-3.0844,-3.0864,-3.085,-3.078,-3.0777,-3.0869,-3.0858,-3.0789,-3.0958,-3.0861,-3.0877,-3.0962,-3.099,-3.1013,-3.1015,-3.0669,0,0,0,0,0,-3.0898,-3.094,-3.0902,-3.0996,-3.0999,-3.095,-3.0969,-3.0926,-3.0924,-3.0924,-3.0904,-3.0906,-3.094,-3.0964,-3.0993,-3.1109,-3.1105,-3.1168,-3.1191,-3.121,-3.1225,-3.1288,-3.1317,-3.1013,-3.1012,-3.1012,0,0,-3.0988,-3.0971,-3.1002,-3.1025,-3.102,-3.1067,-3.0951,-3.1005,-3.104,-3.0932,-3.1008,-3.0993,-3.099,-3.109,-3.1132,-3.1083,-3.1308,-3.1226,-3.1242,-3.1246,-3.1304,-3.1333,-3.1358,-3.1021,-3.1019,-3.1018,0,0,-3.1177,-3.1167,-3.1245,-3.1243,-3.1238,-3.1205,-3.1224,-3.1202,-3.1188,-3.1262,-3.1183,-3.1223,-3.1283,-3.1285,-3.1294,-3.1484,-3.1423,-3.1495,-3.1616,-3.1679,-3.1703,-3.1724,-3.1794,-3.182,-3.1509,-3.151,-3.151,0,-3.129,-3.1357,-3.1293,-3.1353,-3.1366,-3.127,-3.1349,-3.135,-3.1356,-3.1367,-3.1312,-3.1386,-3.1377,-3.1477,-3.1524,-3.1533,-3.1554,-3.1498,-3.1704,-3.1725,-3.1743,-3.181,-3.1836,-3.1519,-3.1518,-3.1517,-3.1516,0,-3.1497,-3.1545,-3.1608,-3.1616,-3.1636,-3.1705,-3.1653,-3.168,-3.1635,-3.1608,-3.1686,-3.1672,-3.1697,-3.1717,-3.1673,-3.1812,-3.1782,-3.1716,-3.1619,-3.1782,-3.1844,-3.1868,-3.1532,-3.1529,-3.1526,-3.1524,0,0,-3.1777,-3.1748,-3.1773,-3.1776,-3.1764,-3.18,-3.1865,-3.1889,-3.1916,-3.1922,-3.1977,-3.203,-3.197,-3.198,-3.1935,-3.199,-3.2145,-3.1918,-3.1917,-3.1963,-3.2299,-3.2351,-3.2381,-3.2103,-3.2108,-3.2111,-3.23,0,-3.1962,-3.2072,-3.2016,-3.2134,-3.2178,-3.2088,-3.2145,-3.2144,-3.2121,-3.2155,-3.2129,-3.2169,-3.2085,-3.2091,-3.214,-3.2116,-3.2212,-3.2101,-3.2155,-3.2158,-3.2162,-3.2412,-3.2466,-3.2646,-3.2323,-3.2327,-3.233,0,-3.2192,-3.2208,-3.2331,-3.2311,-3.2327,-3.238,-3.2399,-3.2432,-3.243,-3.2409,-3.2421,-3.2364,-3.2428,-3.233,-3.2418,-3.2344,-3.2362,-3.2354,-3.2359,-3.2364,-3.2256,-3.2427,-3.2701,-3.2729,-3.2367,-3.2364,-3.2361,0,-3.2387,-3.244,-3.252,-3.2525,-3.2504,-3.2543,-3.2536,-3.2528,-3.2547,-3.2563,-3.2575,-3.2599,-3.2613,-3.2633,-3.2585,-3.2517,-3.2681,-3.2578,-3.2667,-3.2669,-3.2708,-3.2707,-3.2992,-3.2716,-3.2716,-3.2715,-3.2714,0,-3.2601,-3.268,-3.2608,-3.2658,-3.2744,-3.268,-3.2767,-3.275,-3.2744,-3.279,-3.2712,-3.2757,-3.2689,-3.2728,-3.269,-3.277,-3.2776,-3.2763,-3.2752,-3.2771,-3.2774,-3.2785,-3.2772,-3.2722,-3.272,-3.2719,-3.2718,0,-3.2835,-3.279,-3.2872,-3.2845,-3.284,-3.2905,-3.2882,-3.2928,-3.2898,-3.2957,-3.2968,-3.2922,-3.2964,-3.2916,-3.2954,-3.2928,-3.3038,-3.3008,-3.304,-3.3032,-3.3125,-3.3119,-3.343,-3.3469,-3.3166,-3.3168,-3.3171,0,-3.2975,-3.3034,-3.3014,-3.3038,-3.3036,-3.3077,-3.3096,-3.3035,-3.3058,-3.306,-3.3106,-3.314,-3.3165,-3.3236,-3.3207,-3.3235,-3.3207,-3.3314,-3.3211,-3.3229,-3.3212,-3.3211,-3.3217,-3.3336,-3.334,-3.3343,-3.3345,0,-3.3231,-3.3206,-3.3235,-3.3259,-3.3283,-3.3298,-3.3307,-3.3332,-3.3269,-3.3299,-3.334,-3.3359,-3.3397,-3.3434,-3.3454,-3.3448,-3.3388,-3.3377,-3.34,-3.3422,-3.3439,-3.3434,-3.31,-3.3371,-3.3369,-3.3367,-3.3365,-3.3364,-3.3424,-3.3473,-3.3466,-3.3503,-3.3503,-3.3514,-3.3556,-3.3532,-3.3565,-3.3591,-3.3553,-3.3605,-3.3602,-3.3623,-3.3624,-3.3665,-3.3619,-3.3651,-3.366,-3.367,-3.3685,-3.343,-3.3668,-3.3667,-3.3666,-3.3665,-3.3665,0,-3.3678,-3.3669,-3.3703,-3.3718,-3.3748,-3.3686,-3.3693,-3.3722,-3.3769,-3.3771,-3.3797,-3.3845,-3.388,-3.3854,-3.3884,-3.3922,-3.3895,-3.3932,-3.393,-3.393,-3.3723,-3.3702,-3.3953,-3.3953,-3.3953,-3.3953,-3.3953,-3.3953,-3.3813,-3.3893,-3.3868,-3.3948,-3.3938,-3.3988,-3.3998,-3.4008,-3.4009,-3.4067,-3.4096,-3.4078,-3.4069,-3.4098,-3.4128,-3.4119,-3.4135,-3.4183,-3.4165,-3.3972,-3.3944,-3.3917,-3.3897,-3.4186,-3.4186,-3.4369,-3.437,-3.4372]},{"header":{"parameterUnit":"m.s-1","parameterCategory":1,"la1":30.2991,"la2":30.254,"lo1":-89.0895,"lo2":-89.0444,"dy":0.0017,"dx":0.0017,"nx":28,"ny":28,"refTime":"2023-10-01T21:00:00:Z","depth":0,"parameterNumber":3,"parameterNumberName":"V-component_of_WINDS"},"data":[0,0,0,0,0,0,0,0,0,0,0,0,0,0,0,0,0,0,0,0,0,0,0,0,0,0,0,0,0,0,0,0,0,0,0,0,0,0,0,0,0,0,0,0,0,0,0,0,0,0,0,0,0,0,0,0,0,0,0.9016,0.9015,0,0.8949,0.8948,0.8947,0.8925,0.8925,0.8926,0.8926,0.8851,0.8849,0.8847,0,0,0,0,0,0,0,0,0,0,0,0,0,0.9119,0.9117,0.9016,0.9015,0.9014,0.8949,0.8948,0.8947,0.8925,0.8925,0.8926,0.8926,0.8852,0.8849,0.8846,0,0,0,0,0,0,0,0,0,0,0,0,0,0.9065,0.9117,0.9016,0.8995,0.8993,0.8949,0.8948,0.8947,0.8925,0.8925,0.8926,0.8926,0.8853,0.8849,0.8846,0.8816,0,0,0.8836,0.8834,0,0,0,0,0,0,0,0,0.9068,0.9061,0.8999,0.8997,0.8994,0.8946,0.8957,0.8903,0.8925,0.8951,0.8926,0.8927,0.8882,0.8876,0.8862,0.8812,0.8809,0.8835,0.8833,0.8832,0.8831,0,0,0,0,0,0,0,0.9072,0.9064,0.8989,0.8998,0.8995,0.8988,0.8981,0.8947,0.8914,0.8948,0.8947,0.8939,0.888,0.8866,0.886,0.8808,0.8835,0.8832,0.883,0.8829,0.873,0.873,0,0,0,0,0,0,0.908,0.9067,0.8991,0.8987,0.9033,0.8986,0.8978,0.8961,0.8915,0.8908,0.8939,0.8939,0.8871,0.8864,0.8858,0.8819,0.8832,0.8829,0.8827,0.8731,0.873,0.873,0,0,0,0,0,0,0.9082,0.9073,0.8994,0.9027,0.9016,0.8983,0.8965,0.8959,0.8944,0.8908,0.8901,0.893,0.8871,0.8862,0.8827,0.8816,0.8827,0.8824,0.8732,0.8731,0.873,0.8743,0,0,0,0,0,0,0.9085,0.9074,0.9064,0.9027,0.9015,0.8966,0.8964,0.8958,0.8939,0.8938,0.8898,0.8891,0.8871,0.8832,0.8824,0.8812,0.8821,0.8732,0.8731,0.873,0.8743,0.8742,0.8742,0,0,0,0,0,0.9089,0.9068,0.9063,0.9054,0.9001,0.8965,0.8958,0.8937,0.8939,0.8927,0.8904,0.8893,0.882,0.8829,0.8819,0.8806,0.8733,0.8732,0.873,0.8743,0.8742,0.8742,0,0,0,0,0,0,0.9101,0.9063,0.9057,0.9024,0.8998,0.8962,0.8946,0.8937,0.8908,0.8908,0.8881,0.8872,0.8839,0.8819,0.883,0.8775,0.8776,0.8772,0.8789,0.8788,0.8787,0.8792,0.8818,0,0,0,0,0,0.9101,0.9078,0.9044,0.9018,0.9006,0.8978,0.8962,0.8949,0.892,0.8908,0.8882,0.8854,0.8824,0.8805,0.8776,0.8741,0.8731,0.8727,0.8727,0.8726,0.8723,0.8703,0.8701,0.8726,0.8726,0.8726,0,0,0.9098,0.9074,0.906,0.902,0.8999,0.8973,0.8969,0.8942,0.8923,0.8903,0.8869,0.8849,0.8815,0.878,0.8763,0.8762,0.8715,0.8725,0.8725,0.8721,0.8702,0.8699,0.8697,0.8725,0.8725,0.8725,0,0,0.908,0.9061,0.9037,0.9017,0.8986,0.8968,0.8962,0.8928,0.8915,0.888,0.8866,0.8842,0.8791,0.8768,0.875,0.8726,0.8715,0.8717,0.8713,0.8694,0.8692,0.869,0.8681,0.8678,0.8715,0.8715,0.8715,0,0.908,0.9043,0.9025,0.9,0.8982,0.8967,0.8942,0.8923,0.8883,0.887,0.8871,0.8809,0.8785,0.8744,0.8739,0.8725,0.8717,0.8721,0.8695,0.8692,0.869,0.8681,0.8678,0.8715,0.8715,0.8715,0.8715,0,0.9044,0.9019,0.9004,0.8969,0.8949,0.8924,0.8901,0.8883,0.8872,0.8854,0.882,0.8791,0.8756,0.8746,0.8733,0.8704,0.8704,0.87,0.87,0.8689,0.868,0.8676,0.8716,0.8716,0.8715,0.8715,0,0,0.9029,0.8987,0.8982,0.8966,0.8932,0.8911,0.8886,0.8854,0.884,0.8813,0.879,0.875,0.8746,0.8725,0.8711,0.8694,0.8677,0.8692,0.8691,0.8689,0.8642,0.8644,0.8641,0.8671,0.867,0.8669,0.8645,0,0.9006,0.8962,0.8946,0.8908,0.8884,0.8872,0.8849,0.8825,0.8808,0.8784,0.8765,0.8736,0.8735,0.8722,0.8705,0.8683,0.8667,0.8685,0.8647,0.8646,0.8654,0.8636,0.8638,0.8616,0.8641,0.864,0.864,0,0.8972,0.8949,0.891,0.8881,0.887,0.885,0.8821,0.8799,0.8771,0.876,0.8739,0.8726,0.8697,0.8701,0.8661,0.8673,0.8657,0.8644,0.8643,0.8636,0.8641,0.8628,0.8608,0.8604,0.8634,0.8635,0.8635,0,0.8964,0.8922,0.8894,0.8881,0.8846,0.8833,0.8818,0.8791,0.8774,0.8748,0.8736,0.8706,0.8689,0.8666,0.8645,0.865,0.8607,0.8608,0.8595,0.8595,0.8584,0.8585,0.856,0.8577,0.8577,0.8577,0.8577,0,0.8939,0.8915,0.889,0.8872,0.8846,0.8828,0.8801,0.8785,0.8762,0.874,0.8726,0.8705,0.868,0.8655,0.8639,0.8607,0.86,0.8589,0.8584,0.8589,0.8591,0.8577,0.8577,0.8576,0.8576,0.8576,0.8577,0,0.8923,0.8906,0.8875,0.8846,0.8838,0.882,0.8794,0.8776,0.876,0.8732,0.8724,0.8698,0.8669,0.8647,0.8607,0.8596,0.8563,0.8559,0.8573,0.857,0.8558,0.8559,0.8522,0.8515,0.8538,0.8538,0.8538,0,0.8907,0.889,0.886,0.8846,0.8831,0.8808,0.8791,0.8773,0.8756,0.8725,0.871,0.8681,0.8656,0.861,0.8586,0.8557,0.8551,0.854,0.8546,0.8552,0.8549,0.855,0.8548,0.8538,0.8538,0.8538,0.8538,0,0.888,0.8874,0.8851,0.8827,0.8808,0.8787,0.8765,0.8754,0.8732,0.8713,0.8685,0.8666,0.8628,0.8599,0.8568,0.855,0.8539,0.8537,0.8532,0.8536,0.8544,0.8538,0.8569,0.8537,0.8537,0.8537,0.8537,0.8537,0.8863,0.8847,0.8825,0.88,0.8784,0.8764,0.8746,0.873,0.8707,0.8676,0.8667,0.8637,0.8611,0.8569,0.8551,0.8527,0.8526,0.8519,0.8517,0.8515,0.8515,0.855,0.8521,0.8521,0.8521,0.8521,0.8521,0,0.8835,0.8821,0.8799,0.8771,0.8752,0.8749,0.8725,0.8709,0.8684,0.8662,0.8639,0.8607,0.8579,0.8554,0.8525,0.851,0.8505,0.8503,0.8503,0.8499,0.8518,0.8525,0.8508,0.8508,0.8508,0.8508,0.8508,0.8508,0.8817,0.879,0.8781,0.8745,0.8731,0.8704,0.8691,0.8673,0.8655,0.8621,0.8599,0.8584,0.8561,0.8531,0.8505,0.8498,0.8487,0.8486,0.8478,0.8496,0.8497,0.8499,0.8505,0.8484,0.8484,0.8461,0.8461,0.846]}]]